{"data":{"norad_id":66534,"epoch":"2026-05-25T05:17:49.684416Z","epoch_age_seconds":55642,"freshness":"FRESH","line1":"1 66534U 25265U   26145.22071394  .00007207  00000+0  27103-3 0  9991","line2":"2 66534  43.0019 206.0895 0000361  80.9630 279.1262 15.27594932 28814","mean_motion":15.27594932,"eccentricity":3.61e-5,"inclination_deg":43.0019,"raan_deg":206.0895,"arg_perigee_deg":80.963,"mean_anomaly_deg":279.1262,"bstar":0.00027103,"rev_number":2881,"period_min":94.265827271022,"perigee_km":482.75669742012,"apogee_km":483.25207182809,"semimajor_km":6861.1413846241,"source":"CELESTRAK","updated_at":"2026-05-25T13:38:21.253092Z"}}